GW0996 Weather Reports


time (UTC)temp
F
wind
direction
speed
knots
gust
knots
rain 1hr
in
rain 24hr
in
rain mn
in
humidity
%
barometer
mb
20260504110228 75 109 0.0 1.7 0.00 0.00 0.00 39 1017.4
20260504100153 74 114 0.0 0.9 0.00 0.00 0.00 36 1018.3
20260504081643 65 332 0.0 0.9 0.00 0.00 0.00 59 1018.6
20260504081141 64 345 0.0 0.9 0.00 0.00 0.00 63 1018.6
20260504080641 64 345 0.0 0.9 0.00 0.00 0.00 62 1018.6
20260504080139 63 338 0.0 0.9 0.00 0.00 0.00 63 1018.6
20260504060116 49 328 0.0 0.0 0.00 0.00 0.00 85 1018.7
20260504045554 44 328 0.0 0.0 0.00 0.00 0.00 92 1018.7
20260504045054 43 328 0.0 0.0 0.00 0.00 0.00 92 1018.6
20260504044553 43 328 0.0 0.0 0.00 0.00 0.00 92 1018.6
20260504044054 43 329 0.0 0.0 0.00 0.00 0.00 92 1018.5
20260504043553 42 328 0.0 0.0 0.00 0.00 0.00 92 1018.2
20260504042553 42 328 0.0 0.0 0.00 0.00 0.00 92 1018.4
20260504041552 43 328 0.0 0.0 0.00 0.00 0.00 92 1018.0
20260504041053 43 328 0.0 0.0 0.00 0.00 0.00 92 1018.3
20260504040552 43 328 0.0 0.0 0.00 0.00 0.00 92 1018.1
20260504040054 43 328 0.0 0.0 0.00 0.00 0.00 91 1018.2
20260504035553 43 329 0.0 0.0 0.00 0.00 0.00 91 1018.1
20260504034054 43 328 0.0 0.0 0.00 0.00 0.00 91 1018.1
20260504033540 43 328 0.0 0.0 0.00 0.00 0.00 91 1018.1
20260504033041 43 328 0.0 0.0 0.00 0.00 0.00 91 1018.0
20260504032540 43 328 0.0 0.0 0.00 0.00 0.00 90 1018.0
20260504032040 43 328 0.0 0.0 0.00 0.00 0.00 90 1018.1
20260504031539 43 328 0.0 0.0 0.00 0.00 0.00 90 1018.0
20260504030540 44 327 0.0 1.7 0.00 0.00 0.00 89 1018.0
20260504030040 44 330 0.0 1.7 0.00 0.00 0.00 89 1017.9
20260504025040 44 346 0.0 0.0 0.00 0.00 0.00 90 1018.0
20260504024540 44 347 0.0 0.0 0.00 0.00 0.00 89 1018.0
20260504024015 44 346 0.0 0.0 0.00 0.00 0.00 90 1018.1
20260504023503 44 351 0.0 0.0 0.00 0.00 0.00 89 1018.3
20260504023004 44 351 0.0 0.0 0.00 0.00 0.00 88 1018.1
20260504022504 44 351 0.0 0.0 0.00 0.00 0.00 88 1018.0
20260504022005 44 351 0.0 0.0 0.00 0.00 0.00 88 1018.1
20260504021442 44 351 0.0 0.0 0.00 0.00 0.00 89 1018.3
20260504020942 44 351 0.0 0.0 0.00 0.00 0.00 89 1018.2
20260504015928 44 351 0.0 0.0 0.00 0.00 0.00 88 1017.9
20260504014905 44 350 0.0 0.0 0.00 0.00 0.00 87 1018.1
20260504014404 44 350 0.0 0.0 0.00 0.00 0.00 86 1017.9
20260504013903 45 350 0.0 0.0 0.00 0.00 0.00 86 1018.0
20260504012905 45 350 0.0 0.0 0.00 0.00 0.00 85 1018.0
20260504012352 45 350 0.0 0.0 0.00 0.00 0.00 85 1018.0
20260504011839 45 350 0.0 0.0 0.00 0.00 0.00 85 1018.3
20260504010342 45 350 0.0 0.0 0.00 0.00 0.00 84 1018.0
20260504005840 45 350 0.0 0.0 0.00 0.00 0.00 84 1017.9
20260504005340 46 350 0.0 0.0 0.00 0.00 0.00 83 1018.1
20260504004840 46 350 0.0 0.0 0.00 0.00 0.00 83 1018.2
20260504003840 46 350 0.0 0.0 0.00 0.00 0.00 82 1018.0
20260504002841 47 350 0.0 0.0 0.00 0.00 0.00 81 1017.9
20260504002340 47 350 0.0 0.0 0.00 0.00 0.00 80 1018.0
20260504001841 47 350 0.0 0.0 0.00 0.00 0.00 80 1017.9
20260504001342 47 350 0.0 0.0 0.00 0.00 0.00 79 1018.0
20260504000840 48 350 0.0 0.9 0.00 0.00 0.00 78 1018.0
20260504000343 48 349 0.0 0.9 0.00 0.00 0.00 78 1018.0
20260503235840 47 9 0.0 0.0 0.00 0.00 0.00 79 1018.3
20260503235341 47 11 0.0 0.0 0.00 0.00 0.00 79 1018.0
20260503234815 47 11 0.0 0.9 0.00 0.00 0.00 79 1018.2
20260503233252 48 13 0.0 0.0 0.00 0.00 0.00 78 1018.2
20260503232753 48 13 0.0 0.0 0.00 0.00 0.00 78 1018.1
20260503231254 49 13 0.0 0.0 0.00 0.00 0.00 76 1018.1
20260503230752 49 13 0.0 0.0 0.00 0.00 0.00 77 1018.2
20260503230253 49 13 0.0 0.0 0.00 0.00 0.00 77 1018.2
20260503225753 49 13 0.0 0.0 0.00 0.00 0.00 75 1018.2
20260503225241 50 13 0.0 0.0 0.00 0.00 0.00 75 1018.2
20260503224740 50 11 0.0 0.0 0.00 0.00 0.00 75 1018.2
20260503224239 50 12 0.0 0.0 0.00 0.00 0.00 74 1018.2
20260503223741 50 12 0.0 0.9 0.00 0.00 0.00 74 1018.4
20260503223241 51 11 0.0 0.9 0.00 0.00 0.00 74 1018.3
20260503222728 50 14 0.0 0.0 0.00 0.00 0.00 74 1018.2
20260503222229 51 15 0.0 0.9 0.00 0.00 0.00 74 1018.3
20260503221728 51 14 0.0 0.9 0.00 0.00 0.00 75 1018.4
20260503221216 51 14 0.0 0.9 0.00 0.00 0.00 75 1018.5
20260503215717 52 15 0.0 0.9 0.00 0.00 0.00 75 1018.1
20260503215216 52 15 0.0 0.9 0.00 0.00 0.00 73 1018.0
20260503214708 52 13 0.0 0.9 0.00 0.00 0.00 73 1018.1
20260503214154 52 13 0.0 0.9 0.00 0.00 0.00 74 1018.0
20260503213151 53 23 0.0 0.9 0.00 0.00 0.00 73 1017.9
20260503212658 53 22 0.0 0.9 0.00 0.00 0.00 73 1018.1
20260503212151 53 72 0.0 0.0 0.00 0.00 0.00 73 1018.2
20260503211659 54 72 0.0 0.0 0.00 0.00 0.00 72 1018.1
20260503211154 54 72 0.0 0.0 0.00 0.00 0.00 72 1017.9
20260503210142 55 71 0.0 0.0 0.00 0.00 0.00 72 1017.9
20260503205142 55 71 0.0 0.9 0.00 0.00 0.00 71 1018.0
20260503204140 56 12 0.0 0.0 0.00 0.00 0.00 69 1018.0
20260503203142 56 6 0.0 0.0 0.00 0.00 0.00 69 1017.8
20260503202629 57 13 0.0 0.0 0.00 0.00 0.00 69 1017.8
20260503202129 57 348 0.0 0.0 0.00 0.00 0.00 68 1017.7
20260503201628 57 344 0.0 0.0 0.00 0.00 0.00 68 1017.7
20260503201115 58 344 0.0 0.0 0.00 0.00 0.00 68 1017.7
20260503200616 58 343 0.0 0.0 0.00 0.00 0.00 66 1017.7
20260503200116 58 338 0.0 0.9 0.00 0.00 0.00 66 1017.7
20260503195104 58 42 0.0 0.0 0.00 0.00 0.00 66 1017.5
20260503194604 59 40 0.0 0.0 0.00 0.00 0.00 66 1017.5
20260503194053 59 12 0.0 0.0 0.00 0.00 0.00 66 1017.6
20260503193053 60 7 0.0 0.9 0.00 0.00 0.00 65 1017.5
20260503192053 60 359 0.0 0.9 0.00 0.00 0.00 65 1017.4
20260503191552 60 350 0.0 0.9 0.00 0.00 0.00 65 1017.3
20260503191054 60 341 0.0 0.9 0.00 0.00 0.00 66 1017.3
20260503190552 60 345 0.0 0.9 0.00 0.00 0.00 66 1017.4
20260503190053 61 324 0.0 0.0 0.00 0.00 0.00 66 1017.3
20260503185553 61 324 0.0 0.9 0.00 0.00 0.00 65 1017.2
20260503185056 62 323 0.0 0.9 0.00 0.00 0.00 66 1016.9
20260503183542 62 336 0.0 0.9 0.00 0.00 0.00 66 1016.8
20260503183028 62 336 0.0 0.9 0.00 0.00 0.00 66 1016.6
20260503181454 64 313 0.0 1.7 0.00 0.00 0.00 64 1016.7
20260503180953 64 320 0.0 1.7 0.00 0.00 0.00 63 1016.4
20260503180454 65 63 0.0 1.7 0.00 0.00 0.00 62 1016.5
20260503175954 65 312 0.0 0.9 0.00 0.00 0.00 60 1016.5
20260503175453 66 312 0.0 0.9 0.00 0.00 0.00 58 1016.4
20260503174953 67 312 0.0 1.7 0.00 0.00 0.00 56 1016.4
20260503174453 68 312 0.0 1.7 0.00 0.00 0.00 54 1016.4
20260503173952 69 312 0.9 1.7 0.00 0.00 0.00 49 1016.2
20260503172954 70 312 0.9 2.6 0.00 0.00 0.00 47 1016.4
20260503172453 70 315 0.9 3.5 0.00 0.00 0.00 46 1016.4
20260503171952 70 315 1.7 3.5 0.00 0.00 0.00 45 1016.2
20260503171453 71 318 0.0 2.6 0.00 0.00 0.00 45 1016.3
20260503170939 71 316 0.0 2.6 0.00 0.00 0.00 45 1016.5
20260503170441 71 315 1.7 2.6 0.00 0.00 0.00 44 1016.2
20260503150942 74 309 1.7 6.1 0.00 0.00 0.00 42 1016.8
20260503150439 73 52 0.0 3.5 0.00 0.00 0.00 42 1016.7
20260503131353 76 318 0.0 5.2 0.00 0.00 0.00 38 1017.8
20260503130836 76 6 0.0 6.1 0.00 0.00 0.00 39 1017.8
20260503130338 76 306 1.7 7.8 0.00 0.00 0.00 38 1017.7